Regional Weather Roundup
Issued by NWS

Home | Current Version | Previous Version | Graphics & Text | Print | Product List | Glossary On
Versions: 1 2 3 4 5 6 7 8 9 10 11 12 13 14 15 16 17 18 19 20 21 22 23 24 25 26 27 28 29 30 31 32 33 34 35 36 37 38 39 40 41 42 43 44 45 46 47 48 49 50
000
ASUS43 KMPX 161010
RWRMN
WEATHER ROUNDUP FOR MINNESOTA
NATIONAL WEATHER SERVICE TWIN CITIES/CHANHASSEN MN
500 AM CDT WED AUG 16 2017


NOTE: "FAIR" INDICATES FEW OR NO CLOUDS BELOW 12,000 FEET WITH NO
SIGNIFICANT WEATHER AND/OR OBSTRUCTIONS TO VISIBILITY. N/A MEANS
CURRENT SKY AND/OR WEATHER CONDITIONS ARE NOT AVAILABLE.

MNZ060>063-068>070-161100-
   Twin Cities Metro

CITY           SKY/WX    TMP DP  RH WIND       PRES   REMARKS
TWIN CITIES    LGT RAIN  65  62  90 E12       29.93F
ST PAUL        LGT RAIN  64  64 100 SE8       29.94F
CRYSTAL        LGT RAIN  64  60  87 E6        29.92F
BLAINE         LGT RAIN  64  64 100 SE5       29.94F
LAKEVILLE      CLOUDY    63  63 100 E5        29.94F
EDEN PRAIRIE   LGT RAIN  65  63  93 E8        29.91F
SOUTH ST PAUL  LGT RAIN  64  64  99 SE6       29.95F
LAKE ELMO      RAIN      63  63 100 SE9       29.96F
$$
MNZ001>005-007-008-013>017-022>024-027-028-161100-
   Northwest Minnesota

CITY           SKY/WX    TMP DP  RH WIND       PRES   REMARKS
BEMIDJI        CLOUDY    63  60  90 E9        29.94F
HALLOCK        CLOUDY    63  63 100 E3        29.89F
ROSEAU         RAIN      64  59  82 CALM      29.94R
WARROAD        CLOUDY    66  63  88 CALM      29.95R
THIEF RVR FALL LGT RAIN  63  61  93 E7        29.92F
CROOKSTON      CLOUDY    64  61  88 SE10      29.89F
FOSSTON        LGT RAIN  63  57  82 SE5       29.94S
DETROIT LAKES  CLOUDY    63  59  88 SE9       29.91S
MOORHEAD       DRIZZLE   64  61  88 E5        29.87F
PARK RAPIDS    CLOUDY    65  59  81 E9        29.93S
MAHNOMEN       RAIN      62  60  93 E5        29.92S
$$
MNZ006-009>011-018-025>026-161100-
   North Central Minnesota

CITY           SKY/WX    TMP DP  RH WIND       PRES   REMARKS
BAUDETTE       CLOUDY    64  60  87 SE6       29.96R
FLAG ISLAND    CLOUDY    70  63  78 CALM      29.93R
INTL FALLS     CLOUDY    61  51  70 SE3       29.99R
WASKISH        CLOUDY    63  59  88 SE3       29.96S
BIG FORK       CLOUDY    61  54  77 CALM      30.00R
LONGVILLE      CLOUDY    61  57  88 E6        29.96S
GRAND RAPIDS   CLOUDY    58  54  86 E5        30.01S
CRANE LAKE     CLOUDY    54  52  94 CALM      30.03S
ORR            CLOUDY    57  45  62 CALM      29.99R
COOK             N/A     59  46  63 E3        30.01F
WALKER         CLOUDY    64  59  85 SE7       29.95S
$$
MNZ012-019>021-037-161100-
   Northeast Minnesota

CITY           SKY/WX    TMP DP  RH WIND       PRES   REMARKS
DULUTH         CLOUDY    57  56  96 E8        30.02R
ELY            CLOUDY    52  46  82 CALM      30.03S
HIBBING        CLOUDY    54  51  90 CALM      30.01R
EVELETH        MOCLDY    58  51  77 CALM      30.03S
DULUTH HARBOR  CLOUDY    64  61  88 NE13      30.02S
TWO HARBORS    CLOUDY    61  55  82 CALM      30.01S
GRAND MARAIS     N/A     55  52  89 N6        30.05F
G MARAIS ARPRT CLOUDY    43  37  81 NE3       30.07F
$$
MNZ029>031-032-039>041-046>048-054>057-064-161100-
   West Central Minnesota

CITY           SKY/WX    TMP DP  RH WIND       PRES   REMARKS
FERGUS FALLS   DRIZZLE   64  63  94 SE9       29.87S
WHEATON        LGT RAIN  63  61  94 SE7       29.89R
MORRIS         CLOUDY    64  63  94 SE12      29.87S
ALEXANDRIA     CLOUDY    63  61  93 SE9       29.91F
ELBOW LAKE     CLOUDY    63  62  99 E8        29.89S FOG
WADENA         CLOUDY    63  57  82 SE7       29.91F
GLENWOOD       MOCLDY    63  61  94 SE6       29.90F
APPLETON       CLOUDY    66  63  88 SE6       29.87S FOG
BENSON         CLOUDY    66  63  88 S8        29.89F
ORTONVILLE     CLOUDY    64  63  94 MISG      29.86F FOG
MADISON        CLOUDY    68  68 100 SE5       29.86S
WILLMAR        CLOUDY    66  64  94 SE10      29.90F
$$
MNZ033>034-036-042>043-049>051-058-059-161100-
   Central Minnesota

CITY           SKY/WX    TMP DP  RH WIND       PRES   REMARKS
ST CLOUD       CLOUDY    62  62 100 E6        29.93F
SAUK CENTRE    CLOUDY    63  61  95 SE7       29.91F
PAYNESVILLE    CLOUDY    64  62  93 SE7       29.91F
AITKIN         MOCLDY    57  55  94 E3        29.96S
PINE RIVER     CLOUDY    61  57  88 E7        29.98S
BRAINERD       CLOUDY    64  57  78 SE6       29.95S
STAPLES        PTCLDY    63  57  82 SE3       29.93S
LONG PRAIRIE   CLOUDY    61  59  94 E3        29.92F
LITTLE FALLS   MOCLDY    61  57  88 SE6       29.93S
LITCHFIELD     CLOUDY    66  64  94 SE9       29.91F
BUFFALO        CLOUDY    64  61  91 E6        29.94S
MAPLE LAKE     DRIZZLE   65  64  96 SE5       29.93F
HUTCHINSON     CLOUDY    65  64  94 E10       29.91F
$$
MNZ037-044-045-052-053-161100-
   East Central Minnesota

CITY           SKY/WX    TMP DP  RH WIND       PRES   REMARKS
PRINCETON      CLOUDY    64  61  88 E6        29.95S
MORA           CLOUDY    59  54  82 SE3       29.98S
RUSH CITY      CLOUDY    61  57  87 SE3       29.97F
MOOSE LAKE     CLOUDY    57  54  88 CALM      29.98S
HINCKLEY       FAIR      61  59  94 E8        29.97F
CLOQUET        CLOUDY    59  55  88 E6        30.01S
MCGREGOR       CLOUDY    57  55  94 E5        29.99S
$$
MNZ071>073-080-081-089-090-097-098-161100-
   Southwest Minnesota

CITY           SKY/WX    TMP DP  RH WIND       PRES   REMARKS
MONTEVIDEO     CLOUDY    64  64 100 S7        29.87S
GRANITE FALLS  CLOUDY    67  65  93 E5        29.88F
CANBY          CLOUDY    65  64  95 CALM      29.87S
MARSHALL       CLOUDY    67  65  93 S7        29.87S
REDWOOD FALLS  CLOUDY    66  62  87 SE10      29.88S
OLIVIA         CLOUDY    64  61  88 SE7       29.88F
PIPESTONE      CLOUDY    66  64  94 S5        29.88F FOG
WINDOM         CLOUDY    66  64  94 SE8       29.90S FOG
WORTHINGTON    CLOUDY    66  65  96 S7        29.89F
JACKSON        CLOUDY    64  64 100 CALM      29.90S FOG
TRACY          CLOUDY    67  67  97 S8G16     29.88S
SLAYTON        CLOUDY    65  60  84 S9        29.89F FOG
$$
MNZ065>067-074>077-082>085-091>093-161100-
   South Central Minnesota

CITY           SKY/WX    TMP DP  RH WIND       PRES   REMARKS
MANKATO        LGT RAIN  65  63  93 SE9       29.92S
NEW ULM        CLOUDY    64  63  94 SE9       29.90S
ST JAMES       RAIN      64  63  94 SE5       29.91S
FAIRMONT       LGT RAIN  64  64 100 E8        29.89F FOG
GLENCOE        CLOUDY    65  65 100 E8        29.91S
FARIBAULT      CLOUDY    64  63  94 E7        29.93F
OWATONNA       CLOUDY    64  63  94 E9        29.93F
WASECA         CLOUDY    63  61  94 E7        29.93F
ALBERT LEA     MOCLDY    66  66 100 SE8       29.91F
$$
MNZ078>079-086>088-094>096-161100-
   Southeast Minnesota

CITY           SKY/WX    TMP DP  RH WIND       PRES   REMARKS
ROCHESTER      CLOUDY    64  62  93 SE8       29.96F
RED WING       HVY RAIN  64  61  88 E7        29.96S
STANTON        CLOUDY    65  62  91 E6        29.93F
DODGE CENTER   MOCLDY    64  61  88 E7        29.94F
WINONA         CLOUDY    64  63  94 SE5       29.98S
AUSTIN         CLOUDY    64  61  88 E6        29.93S
PRESTON        CLOUDY    64  60  88 E6        29.96F
$$
ABBREVIATIONS USED IN REMARKS
   TC - TEMPERATURES IN CELSIUS
  WCI - WIND CHILL INDEX
   HX - HEAT INDEX
  VSB - VISIBILITY
$$




USA.gov is the U.S. government's official web portal to all federal, state and local government web resources and services.